Location: Killam
(52.7910°N, 111.8608°W)
Time: 12:57:51
(UTC+00:00)

Oscar 11 - Pass Details

Date: 16 March 2026
Orbit: 590 x 602 km, 97.8° (Epoch: 18 April)

Event Time Altitude Azimuth Distance (km) Brightness Sun altitude
Rises 12:58:05 0° 0° (N) 2,843 10.6 -7.0°
Reaches altitude 10° 13:01:20 10° 333° (NNW) 1,934 9.4 -6.5°
Maximum altitude 13:03:12 13° 306° (NW) 1,747 8.9 -6.2°
Drops below altitude 10° 13:05:05 10° 279° (W) 1,927 9.0 -6.0°
Enters shadow 13:06:06 - 268° (W) 2,154 9.1 -5.8°
